Flag for Brunei Weather past 2 weeks in Bandar Seri Begawan, Brunei

Now
84 °F

Broken clouds.


Feels Like: 92 °F
Forecast: 77 / 87 °F
Wind: 7 mph from Northwest

Location: Brunei Airport

Current Time: Aug 21, 2014 at 4:30:35 PM

Latest Report: Aug 21, 2014 at 3:30 PM


Visibility: N/A

Pressure: 29.80 "Hg

Humidity: 74%

Dew point: 75 °F

Location of Bandar Seri BegawanLocation

Historic Weather in Bandar Seri Begawan — Graph

°F

Bandar Seri Begawan temperature yesterday

Maximum temperature yesterday: 88 °F (at 11:00 AM)
Minimum temperature yesterday: 75 °F (at 6:00 AM)
Average temperature yesterday: 82 °F

Past Weeks' High & Low Weather Summary

 TemperatureHumidityPressure
High90 °F (Aug 7, 12:00 PM)100% (Aug 8, 4:30 AM)29.95 "Hg (Aug 8, 4:30 AM)
Low73 °F (Aug 14, 5:00 AM)59% (Aug 18, 3:30 PM)29.71 "Hg (Aug 11, 4:00 PM)
Average81 °F85%29.86 "Hg
* Reported Aug 6 3:00 PM — Aug 21 3:30 PM, Bandar Seri Begawan, Weather by CustomWeather, © 2014

Note: Actual official high and low records may vary slightly from our data, if they occured in-between our weather recording intervals... More about our weather records

Advertising

Bandar Seri Begawan weather history for previous 24 hours

 ConditionsComfort  
Time TempWeatherWind HumidityBarometerVisibility
3:30 PM
Aug 21
84 °FBroken clouds.7 mph74%29.80 "HgN/A
3:00 PM86 °FBroken clouds.7 mph70%29.80 "HgN/A
2:30 PM86 °FBroken clouds.6 mph70%29.80 "HgN/A
2:00 PM84 °FBroken clouds.6 mph74%29.80 "HgN/A
1:30 PM86 °FPartly sunny.9 mph70%29.83 "HgN/A
1:00 PM84 °FPartly sunny.8 mph70%29.83 "HgN/A
12:30 PM82 °FBroken clouds.8 mph89%29.86 "HgN/A
12:00 PM81 °FSprinkles. Broken clouds.8 mph89%29.86 "Hg4 mi
11:30 AM82 °FRain showers. Broken clouds.9 mph79%29.89 "Hg3 mi
11:00 AM84 °FBroken clouds.7 mph79%29.89 "Hg6 mi
10:30 AM86 °FBroken clouds.3 mph70%29.89 "HgN/A
10:00 AM86 °FBroken clouds.3 mph70%29.89 "HgN/A
9:30 AM84 °FBroken clouds.5 mph74%29.89 "HgN/A
9:00 AM82 °FBroken clouds.7 mph79%29.89 "HgN/A
8:30 AM81 °FBroken clouds.6 mph79%29.89 "HgN/A
7:30 AM77 °FPartly sunny.5 mph89%29.86 "HgN/A
7:00 AM77 °FPartly sunny.7 mph89%29.86 "HgN/A
6:30 AM77 °FPartly sunny.6 mph89%29.83 "Hg6 mi
6:00 AM77 °FPassing clouds.6 mph94%29.83 "Hg6 mi
5:30 AM77 °FPassing clouds.5 mph94%29.83 "Hg6 mi
4:30 AM79 °FPassing clouds.2 mph89%29.83 "Hg6 mi
4:00 AM79 °FPassing clouds.2 mph89%29.83 "Hg6 mi
3:30 AM79 °FPassing clouds.2 mph94%29.83 "Hg6 mi
3:00 AM79 °FPassing clouds.1 mph94%29.83 "Hg6 mi
2:30 AM81 °FPassing clouds.2 mph89%29.83 "Hg6 mi
2:00 AM81 °FPassing clouds.2 mph89%29.86 "Hg6 mi
1:30 AM79 °FPassing clouds.1 mph94%29.86 "Hg6 mi
1:00 AM79 °FPassing clouds.2 mph94%29.86 "Hg6 mi
12:30 AM79 °FPartly cloudy.1 mph89%29.86 "Hg6 mi
12:00 AM79 °FPassing clouds.1 mph94%29.86 "Hg6 mi
11:30 PM
Aug 20
81 °FPassing clouds.1 mph89%29.89 "Hg6 mi
11:00 PM81 °FPassing clouds.1 mph89%29.89 "Hg6 mi
10:30 PM81 °FPassing clouds.3 mph84%29.89 "Hg6 mi
10:00 PM81 °FPassing clouds.2 mph84%29.89 "Hg6 mi
9:30 PM81 °FPassing clouds.2 mph84%29.86 "HgN/A
9:00 PM82 °FPassing clouds.3 mph79%29.86 "HgN/A
8:30 PM82 °FPassing clouds.3 mph79%29.86 "HgN/A
8:00 PM84 °FPassing clouds.3 mph74%29.86 "HgN/A
7:30 PM82 °FPassing clouds.5 mph79%29.83 "HgN/A
7:00 PM84 °FPassing clouds.3 mph74%29.83 "HgN/A
6:30 PM84 °FPartly sunny.5 mph74%29.83 "HgN/A
6:00 PM84 °FPartly sunny.5 mph74%29.80 "HgN/A
5:30 PM86 °FPartly sunny.6 mph66%29.80 "HgN/A
5:00 PM88 °FPartly sunny.6 mph62%29.80 "HgN/A
4:30 PM88 °FPartly sunny.6 mph66%29.80 "HgN/A
4:00 PM88 °FPartly sunny.7 mph62%29.80 "HgN/A
Weather by CustomWeather, © 2014

See weather overviewHow to use our weather pages